Tracking 23726 objects as of 16-Oct-2021
HD Live streaming from Space Station
objects crossing your sky now

TITAN 4 R/B

Track TITAN 4 R/B now!
10-day predictions


NORAD ID: 20642
Int'l Code: 1990-050E
Perigee: 431.9 km
Apogee: 1,782.4 km
Inclination: 63.3 °
Period: 107.3 minutes
Semi major axis: 7478 km
RCS: Unknown
Launch date: June 8, 1990
Source: United States (US)
Launch site: AIR FORCE EASTERN TEST RANGE (AFETR)

Note: This is a ROCKET BODY
aabbcc
Your satellite tracking list
Your tracking list is empty




NASA's NSSDC Master Catalog

Two Line Element Set (TLE):
1 20642U 90050E   21284.20992674 0.00001050  00000-0  12993-3 0    00
2 20642  63.3074  58.7286 0902949  51.8120 308.1880 13.42484567    07
Source of the keplerian elements: McCants